This demonstration page uses our WeatherBlox Daily Observations layout. Learn more.

Left ArrowRight Arrow

31.84235, -102.49876

Hourly Observations for August 22, 2015

Temp ( °F °C ) Dew Point ( °F °C ) Humidity (%) Winds ( mph kmh ) Pressure ( in mb ) Visibility ( mi km ) Precip ( " mm )
12:53 am 00:53 Clear 83 28.3 62 16.7 49 49 ESE 10 17 29.82 1010 10 16 0.00 0.00
1:53 am 01:53 Clear 81 27.2 62 16.7 53 53 SSE 9 15 29.81 1010 10 16 0.00 0.00
2:28 am 02:28 Mostly Clear with Nearby Thunderstorms 81 27.2 63 17.2 54 54 S 13 20 29.80 1009 10 16 0.00 0.00
2:43 am 02:43 Partly Cloudy 81 27.2 62 16.7 53 53 WNW 20 31 29.83 1010 10 16 0.00 0.00
2:53 am 02:53 Mostly Cloudy 81 27.2 62 16.7 53 53 W 14 22 29.83 1010 10 16 0.00 0.00
3:00 am 03:00 Partly Cloudy 78 25.6 63 17.2 60 60 WNW 21 33 29.83 1010 10 16 0.00 0.00
3:53 am 03:53 Clear 76 24.4 60 15.6 58 58 WNW 13 20 29.84 1011 10 16 0.00 0.00
4:53 am 04:53 Mostly Cloudy 76 24.4 59 15 56 56 SSW 7 11 29.80 1009 10 16 0.00 0.00
5:53 am 05:53 Clear 79 26.1 60 15.6 52 52 S 14 22 29.74 1007 10 16 0.00 0.00
6:53 am 06:53 Clear 77 25 64 17.8 64 64 SSW 18 30 29.75 1007 10 16 0.00 0.00
7:53 am 07:53 Sunny 76 24.4 65 18.3 69 69 S 14 22 29.80 1009 9 14 0.00 0.00
8:53 am 08:53 Sunny 78 25.6 65 18.3 64 64 SSW 15 24 29.82 1010 10 16 0.00 0.00
9:53 am 09:53 Sunny 80 26.7 65 18.3 60 60 S 13 20 29.83 1010 10 16 0.00 0.00
10:53 am 10:53 Sunny 85 29.4 65 18.3 51 51 S 12 19 29.83 1010 10 16 0.00 0.00
11:53 am 11:53 Sunny 89 31.7 61 16.1 39 39 SW 9 15 29.82 1010 10 16 0.00 0.00
12:53 pm 12:53 Sunny 92 33.3 60 15.6 34 34 SSW 7 11 29.80 1009 10 16 0.00 0.00
1:53 pm 13:53 Sunny 96 35.6 57 13.9 27 27 SSW 12 19 29.79 1009 10 16 0.00 0.00
2:53 pm 14:53 Sunny 97 36.1 57 13.9 26 26 S 13 20 29.76 1008 10 16 0.00 0.00
3:53 pm 15:53 Sunny 99 37.2 55 12.8 23 23 VRB 5 7 29.74 1007 10 16 0.00 0.00
4:53 pm 16:53 Mostly Sunny 99 37.2 53 11.7 21 21 VRB 6 9 29.72 1006 10 16 0.00 0.00
5:53 pm 17:53 Partly Cloudy 100 37.8 52 11.1 20 20 SSW 12 19 29.71 1006 10 16 0.00 0.00
6:53 pm 18:53 Mostly Cloudy 98 36.7 52 11.1 21 21 S 12 19 29.71 1006 10 16 0.00 0.00
7:53 pm 19:53 Mostly Sunny 97 36.1 55 12.8 24 24 SSE 14 22 29.72 1006 10 16 0.00 0.00
8:53 pm 20:53 Clear 93 33.9 59 15 32 32 S 16 26 29.75 1007 10 16 0.00 0.00
9:53 pm 21:53 Clear 91 32.8 59 15 34 34 S 14 22 29.78 1008 10 16 0.00 0.00
10:53 pm 22:53 Clear 89 31.7 58 14.4 35 35 S 17 28 29.80 1009 10 16 0.00 0.00
11:53 pm 23:53 Clear 87 30.6 59 15 39 39 S 16 26 29.81 1010 10 16 0.00 0.00

Powered by AerisWeather